This demonstration page uses our WeatherBlox Daily Observations layout. Learn more.

Hourly Observations for August 28, 2015

Temp ( °F °C ) Dew Point ( °F °C ) Humidity (%) Winds ( mph kmh ) Pressure ( in mb ) Visibility ( mi km ) Precip ( " mm )
12:15 am 00:15 Clear 73 22.6 64 17.6 73 73 W 7 11 29.77 1008 10 16.0934 0 0
12:35 am 00:35 Mostly Cloudy 72 22.2 64 17.7 76 76 Calm 29.77 1008 10 16.0934 0 0
12:55 am 00:55 Partly Cloudy 72 22.4 64 17.5 74 74 SW 3 6 29.77 1008 10 16.0934 0 0
1:15 am 01:15 Clear 70 21.2 64 17.7 81 81 SSW 3 6 29.8 1009 10 16.0934 0 0
1:35 am 01:35 Clear 70 21.3 64 17.7 80 80 S 7 11 29.8 1009 10 16.0934 0 0
1:55 am 01:55 Clear 69 20.6 64 17.6 83 83 WNW 5 7 29.8 1009 10 16.0934 0 0
2:15 am 02:15 Clear 68 20.2 65 18.2 88 88 Calm 29.8 1009 10 16.0934 0 0
2:35 am 02:35 Clear 68 20 65 18.2 89 89 WNW 3 6 29.77 1008 10 16.0934 0 0
2:55 am 02:55 Clear 67 19.4 65 18.1 92 92 WNW 6 9 29.77 1008 10 16.0934 0 0
3:15 am 03:15 Clear 67 19.6 65 18.5 93 93 WNW 6 9 29.77 1008 7 11.26538 0 0
3:35 am 03:35 Clear 67 19.7 65 18.5 93 93 W 6 9 29.77 1008 7 11.26538 0 0
3:55 am 03:55 Clear 67 19.7 65 18.5 93 93 WNW 5 7 29.77 1008 7 11.26538 0 0
4:15 am 04:15 Clear with Mist and Fog 67 19.6 65 18.5 93 93 W 6 9 29.77 1008 5 8.0467 0 0
4:35 am 04:35 Clear with Mist and Fog 67 19.5 65 18.3 93 93 W 5 7 29.77 1008 5 8.0467 0 0
4:55 am 04:55 Mostly Cloudy with Mist and Fog 67 19.5 65 18.5 94 94 W 6 9 29.8 1009 5 8.0467 0 0
5:15 am 05:15 Cloudy 68 19.8 66 18.7 93 93 WNW 6 9 29.8 1009 7 11.26538 0 0
5:35 am 05:35 Cloudy 68 19.9 65 18.6 92 92 NW 7 11 29.8 1009 7 11.26538 0 0
5:55 am 05:55 Cloudy 68 20.1 66 18.8 92 92 NW 9 15 29.8 1009 7 11.26538 0 0
6:15 am 06:15 Cloudy 68 19.9 65 18.4 91 91 NW 6 9 29.8 1009 7 11.26538 0 0
6:35 am 06:35 Partly Cloudy 67 19.5 65 18.1 92 92 NW 7 11 29.8 1009 7 11.26538 0 0
6:55 am 06:55 Mostly Cloudy 67 19.5 65 18.2 92 92 NW 9 15 29.8 1009 7 11.26538 0 0
7:15 am 07:15 Cloudy 68 19.8 65 18.4 92 92 NW 6 9 29.8 1009 7 11.26538 0 0
7:35 am 07:35 Cloudy with Mist and Fog 67 19.7 65 18.5 93 93 NNW 6 9 29.83 1010 5 8.0467 0 0
7:55 am 07:55 Cloudy 68 19.8 65 18.5 92 92 NNW 9 15 29.83 1010 7 11.26538 0 0
8:15 am 08:15 Cloudy with Mist and Fog 67 19.7 65 18.5 93 93 NW 9 15 29.83 1010 5 8.0467 0 0
8:35 am 08:35 Cloudy 68 20 65 18.5 91 91 NNW 8 13 29.83 1010 7 11.26538 0 0
8:55 am 08:55 Cloudy 68 20.1 65 18.3 89 89 NW 9 15 29.85 1011 10 16.0934 0 0
9:15 am 09:15 Cloudy 68 20.2 65 18.2 88 88 NW 6 9 29.85 1011 10 16.0934 0 0
9:35 am 09:35 Cloudy 70 21.1 65 18.4 85 85 NW 6 9 29.85 1011 10 16.0934 0 0
9:55 am 09:55 Mostly Cloudy 71 21.4 64 18 81 81 NW 6 9 29.85 1011 10 16.0934 0 0
10:15 am 10:15 Cloudy 69 20.8 64 17.8 83 83 NNW 7 11 29.85 1011 10 16.0934 0 0
10:35 am 10:35 Cloudy 71 21.5 64 17.6 79 79 N 10 17 29.88 1012 10 16.0934 0 0
10:55 am 10:55 Cloudy 70 21.3 64 17.6 80 80 NNW 7 11 29.88 1012 10 16.0934 0 0
11:15 am 11:15 Mostly Cloudy 71 21.6 64 17.5 78 78 NNW 8 13 29.88 1012 10 16.0934 0 0
11:35 am 11:35 Cloudy 72 22.4 64 17.9 76 76 NNW 5 7 29.88 1012 10 16.0934 0 0
11:55 am 11:55 Cloudy 73 22.8 64 17.8 74 74 N 3 6 29.85 1011 10 16.0934 0 0
12:15 pm 12:15 Cloudy 73 22.7 64 17.8 74 74 NNW 6 9 29.85 1011 10 16.0934 0 0
12:35 pm 12:35 Cloudy 73 22.6 64 17.8 74 74 NW 6 9 29.85 1011 10 16.0934 0 0
12:55 pm 12:55 Cloudy 73 22.9 65 18.1 74 74 NNW 12 19 29.85 1011 10 16.0934 0 0
1:15 pm 13:15 Cloudy 76 24.3 65 18.2 69 69 NNW 9 15 29.85 1011 10 16.0934 0 0
1:35 pm 13:35 Cloudy 75 23.8 66 18.7 73 73 N 8 13 29.85 1011 10 16.0934 0 0
1:55 pm 13:55 Mostly Cloudy 75 23.9 65 18.1 70 70 N 15 24 29.85 1011 10 16.0934 0 0
2:15 pm 14:15 Mostly Cloudy 74 23.6 65 18.4 73 73 N 15 24 29.85 1011 10 16.0934 0 0
2:35 pm 14:35 Mostly Cloudy 76 24.3 65 18.1 68 68 N 13 20 29.85 1011 10 16.0934 0 0
2:55 pm 14:55 Mostly Cloudy 76 24.2 65 18.3 70 70 N 12 19 29.85 1011 10 16.0934 0 0
3:15 pm 15:15 Partly Cloudy 75 24 65 18.1 70 70 N 12 19 29.85 1011 10 16.0934 0 0
3:35 pm 15:35 Partly Cloudy 76 24.5 64 17.9 67 67 NNW 14 22 29.85 1011 10 16.0934 0 0
3:55 pm 15:55 Partly Cloudy 76 24.7 63 17.2 63 63 N 13 20 29.85 1011 10 16.0934 0 0
4:15 pm 16:15 Partly Cloudy 76 24.7 64 17.9 66 66 NNW 13 20 29.85 1011 10 16.0934 0 0
4:35 pm 16:35 Partly Cloudy 77 25 64 17.5 63 63 N 12 19 29.85 1011 10 16.0934 0 0
4:55 pm 16:55 Partly Cloudy 77 25 62 16.6 60 60 N 12 19 29.85 1011 10 16.0934 0 0
5:15 pm 17:15 Partly Cloudy 77 25 63 17 61 61 N 14 22 29.85 1011 10 16.0934 0 0
5:35 pm 17:35 Partly Cloudy 77 25 61 16.3 59 59 N 12 19 29.85 1011 10 16.0934 0 0
5:55 pm 17:55 Partly Cloudy 77 24.9 62 16.5 60 60 N 10 17 29.85 1011 10 16.0934 0 0
6:15 pm 18:15 Sunny 76 24.4 61 16.1 60 60 N 8 13 29.85 1011 10 16.0934 0 0
6:35 pm 18:35 Sunny 75 24 61 16.3 62 62 N 8 13 29.88 1012 10 16.0934 0 0
6:55 pm 18:55 Sunny 74 23.3 62 16.8 67 67 N 8 13 29.91 1013 10 16.0934 0 0
7:15 pm 19:15 Sunny 74 23.1 61 16.1 65 65 NNE 8 13 29.91 1013 10 16.0934 0 0
7:35 pm 19:35 Sunny 72 22.2 61 16.1 68 68 NNE 8 13 29.91 1013 10 16.0934 0 0
7:55 pm 19:55 Sunny 70 21.1 61 16 73 73 NNE 7 11 29.91 1013 10 16.0934 0 0
8:15 pm 20:15 Sunny 68 19.9 61 16 78 78 NNE 6 9 29.91 1013 10 16.0934 0 0
8:35 pm 20:35 Clear 66 18.9 61 16 83 83 NE 6 9 29.94 1014 10 16.0934 0 0
8:55 pm 20:55 Clear 64 18 60 15.6 86 86 NE 5 7 29.97 1015 10 16.0934 0 0
9:15 pm 21:15 Clear 64 17.7 60 15.7 88 88 Calm 29.97 1015 10 16.0934 0 0
9:35 pm 21:35 Clear 64 17.6 61 15.9 90 90 Calm 29.97 1015 10 16.0934 0 0
9:55 pm 21:55 Clear 63 17.3 60 15.5 89 89 Calm 30 1016 10 16.0934 0 0
10:15 pm 22:15 Clear 62 16.5 59 14.8 90 90 Calm 30 1016 10 16.0934 0 0
10:35 pm 22:35 Clear 61 16.2 59 15 93 93 Calm 30.03 1017 10 16.0934 0 0
10:55 pm 22:55 Clear 61 16 59 14.8 93 93 Calm 30.03 1017 10 16.0934 0 0
11:15 pm 23:15 Clear 60 15.5 58 14.3 93 93 Calm 30.03 1017 10 16.0934 0 0
11:35 pm 23:35 Clear 60 15.5 58 14.5 94 94 Calm 30.03 1017 10 16.0934 0 0
11:55 pm 23:55 Clear 60 15.4 58 14.3 93 93 W 3 6 30.03 1017 10 16.0934 0 0

Powered by AerisWeather